Overview Statistics Trail Chart Weather Telemetry Raw packets
 

This is the latest recevied weather packets stored in our database for station/object ea1bqo-1. If no packets are shown the sender has not sent any weather packets the latest 10 day(s).

<< 4 5 6 7 8 9 10 >>
Time Temp. Humidity Pressure Rain* Wind** Luminosity Snow
1788533399 33.89° C 10% 1018.6 hPa 0 mm - - -
1788532859 33.89° C 10% 1018.7 hPa 0 mm - - -
1788532319 33.89° C 10% 1018.8 hPa 0 mm - - -
1788531779 33.89° C 10% 1018.8 hPa 0 mm - - -
1788531239 33.89° C 10% 1018.8 hPa 0 mm - - -
1788530699 33.89° C 10% 1018.8 hPa 0 mm - - -
1788530159 33.89° C 10% 1018.8 hPa 0 mm - - -
1788529619 34.44° C 10% 1019 hPa 0 mm - - -
1788529079 33.89° C 10% 1019.1 hPa 0 mm - - -
1788528539 33.33° C 10% 1019.1 hPa 0 mm - - -
1788527999 32.78° C 10% 1019.1 hPa 0 mm - - -
1788527459 32.22° C 12% 1019.1 hPa 0 mm - - -
1788526919 31.67° C 13% 1019.2 hPa 0 mm - - -
1788526379 31.11° C 15% 1019.2 hPa 0 mm - - -
1788525839 30.56° C 16% 1019.4 hPa 0 mm - - -
1788525299 30.56° C 15% 1019.5 hPa 0 mm - - -
1788524759 30.56° C 17% 1019.6 hPa 0 mm - - -
1788524219 30.56° C 17% 1019.7 hPa 0 mm - - -
1788523679 30.56° C 18% 1019.7 hPa 0 mm - - -
1788523139 30.56° C 16% 1019.7 hPa 0 mm - - -
1788522599 30° C 15% 1019.8 hPa 0 mm - - -
1788522059 30° C 11% 1019.8 hPa 0 mm - - -
1788521519 29.44° C 15% 1019.9 hPa 0 mm - - -
1788520979 28.89° C 16% 1020 hPa 0 mm - - -
1788520439 28.89° C 17% 1020.1 hPa 0 mm - - -

* Rain latest hour (hover to see other rain measurements)
** Current wind speed in m/s (hover to see current wind gust speed)